Location: Casas del Abad
(40.3082°N, 5.5892°W)
Time: 11:57:19
(UTC+00:00)

Daily predictions for brighter satellites

Satellite Brightness Start Highest point End
(mag) Time Altitude Azimuth Time Altitude Azimuth Time Altitude Azimuth
Cosmos 1812 3.5 19:46:11 10° N 19:49:43 34° ENE 19:53:13 10° SE
Cosmos 1727 Rocket 4.1 19:44:10 10° N 19:50:32 71° E 19:56:50 10° SSE
Resurs 01 Rocket 3.4 19:48:46 10° ESE 19:51:34 17° ENE 19:54:23 10° NNE
IRS-1A Rocket 4.4 19:46:59 10° SSE 19:52:33 63° ENE 19:58:17 10° N
Cosmos 1500 Rocket 4.3 19:54:24 10° SSW 19:58:38 58° W 20:02:55 10° N
Cosmos 1441 Rocket 3.1 19:57:02 10° S 20:00:46 68° E 20:04:30 10° NNE
Meteor 1-27 Rocket 4.3 19:56:02 10° N 20:01:39 42° ENE 20:07:14 10° SE
IRIDIUM 104 4.4 19:58:17 10° SSE 20:03:23 58° E 20:08:30 10° N
Cosmos 1782 4.2 20:00:33 10° NNW 20:04:23 43° W 20:08:11 10° SSW
Meteor 1-10 Rocket 4.3 20:01:04 10° N 20:06:49 75° E 20:12:37 10° SSE
SPOT 3 Rocket 4.2 20:02:24 10° SE 20:07:11 38° ENE 20:11:58 10° N
Cosmos 972 4.4 20:02:14 10° N 20:07:13 63° ENE 20:12:02 10° SSE
Cosmos 1867 3.5 20:03:00 10° SSW 20:08:22 67° ESE 20:13:47 10° NE
Cosmos 1821 Rocket 4.0 20:04:26 10° S 20:10:30 66° E 20:16:41 10° NNE
DMSP B5D2-2 4.1 20:06:23 10° NNE 20:11:36 67° ESE 20:16:48 10° S
Cosmos 1666 Rocket 3.9 20:07:43 10° SSE 20:11:45 41° E 20:15:50 10° NNE
SL-08 RB Rocket 3.9 20:07:37 10° S 20:12:14 82° WSW 20:16:56 10° NNW
IRIDIUM 114 4.3 20:07:20 10° S 20:12:30 72° E 20:17:43 10° N
SL-4 R/B 3.8 20:09:07 10° W 20:12:50 31° NNW 20:16:18 10° NE
FREGAT/IRIS 2.3 20:10:54 10° S 20:13:31 80° W 20:16:09 10° NNW
IRIDIUM 103 4.3 20:16:26 10° S 20:21:39 87° E 20:26:53 10° N
Cosmos 1805 Rocket 4.0 20:18:14 10° SSW 20:22:38 68° W 20:27:05 10° N
Cosmos 220 Rocket 4.4 20:18:34 10° NNW 20:22:45 63° WSW 20:26:56 10° S
deb Kosmos-1763 3.9 20:20:57 10° SSW 20:24:32 78° ESE 20:28:12 10° NNE
Cosmos 1954 Rocket 4.1 20:19:56 10° S 20:25:05 55° ESE 20:30:17 10° NNE
Resurs 1-3 3.8 20:21:03 11° SSE 20:25:06 55° ENE 20:29:24 10° N
Cosmos 2360 4.3 20:20:52 10° NNW 20:26:36 69° ENE 20:31:29 14° SSE
ARGOS 4.3 20:24:06 10° S 20:29:12 44° W 20:34:21 10° NNW
Ariane Rocket 3.6 20:25:40 10° S 20:30:37 56° W 20:35:36 10° NNW
SL-16 R/B 4.0 20:27:24 10° N 20:31:07 18° NE 20:34:14 12° E
USA 238 DEB 3.6 20:25:37 10° SSW 20:32:07 69° ESE 20:38:54 10° NE
USA 238 3.6 20:25:45 10° SSW 20:32:14 68° ESE 20:39:00 10° NE
CZ-2C R/B 2.9 20:28:46 10° N 20:33:57 72° WNW 20:39:10 10° SSW
Cosmos 1000 Rocket 4.5 20:29:37 10° N 20:35:53 88° E 20:42:03 10° S
Cosmos 407 Rocket 4.3 20:31:19 10° SW 20:36:31 55° WNW 20:41:42 10° N
Cosmos 2239 Rocket 4.5 20:30:48 10° S 20:36:55 89° W 20:43:07 10° N
Cosmos 2082 Rocket 2.4 20:31:48 10° SSW 20:37:30 79° WNW 20:43:12 10° NNE
Cosmos 2123 Rocket 4.1 20:31:50 10° N 20:37:58 56° E 20:43:00 16° SSE
Cosmos 1190 Rocket 4.5 20:33:28 10° SSW 20:38:42 65° WNW 20:43:59 10° NNE
Cosmos 1633 Rocket 3.0 20:35:58 10° S 20:40:21 73° E 20:44:47 10° NNE
Cosmos 2369 3.9 20:36:11 10° NNW 20:41:56 77° WSW 20:46:55 14° SSE
Lacrosse 5 3.3 20:37:59 10° NNW 20:42:20 28° NNE 20:45:36 15° E
CENTAUR R/B 2.6 20:37:25 10° S 20:42:49 47° ESE 20:49:06 10° NE
Cosmos 1238 Rocket 3.6 20:44:11 22° ENE 20:44:11 22° ENE 20:46:00 10° NE
Cosmos 1605 Rocket 4.2 20:39:16 12° SSE 20:44:34 45° E 20:50:19 10° NNE
Cosmos 1140 Rocket 4.2 20:42:55 10° SW 20:48:03 56° WNW 20:53:13 10° N
X-37B 2.1 20:45:32 10° WNW 20:48:27 33° N 20:50:25 17° ENE
Cosmos 2278 3.7 20:43:20 10° NNW 20:49:05 82° ENE 20:52:56 21° SSE
Cosmos 2322 Rocket 3.8 20:45:53 10° N 20:50:01 20° NE 20:52:29 15° E
Cosmos 2084 Rocket 3.6 20:51:01 10° S 20:54:57 43° ESE 20:59:00 10° NE
OBJECT-B 1.7 20:53:22 16° S 20:55:43 48° W 20:58:56 10° NNW
Cosmos 921 Rocket 3.4 20:52:28 10° N 20:56:30 44° ENE 20:57:44 34° ESE
Cosmos 1707 Rocket 4.1 20:54:33 10° NNW 20:58:48 56° W 21:02:35 13° S
H-2A R/B 3.5 20:55:21 10° NNE 20:59:25 55° E 21:01:16 29° SSE
Cosmos 2360 Rocket 4.2 20:57:31 10° NNE 21:00:17 14° NE 21:02:39 11° ENE
ATLAS 5 CENTAUR R/B 4.3 20:56:09 10° WNW 21:01:00 24° WSW 21:06:17 10° SSW
Genesis I 3.3 20:57:11 10° NW 21:01:03 71° WSW 21:02:30 36° SSE
Cosmos 2242 Rocket 4.4 20:57:05 10° NNE 21:01:04 32° ENE 21:01:45 31° E
Shenzhou-11 Module 4.0 21:01:25 10° WSW 21:02:17 14° SW 21:02:17 14° SW
Cosmos 1602 4.1 21:03:28 41° ESE 21:03:49 42° E 21:07:33 10° NNE
Cosmos 1470 Rocket 3.4 21:05:20 22° S 21:08:11 81° E 21:12:34 10° N
Cosmos 1184 Rocket 3.4 21:06:16 16° SSW 21:08:44 54° W 21:11:59 10° N
Cosmos 1980 Rocket 2.3 21:04:13 10° NNW 21:09:53 76° WSW 21:13:02 27° SSE
Meteor 1-4 Rocket 3.4 21:10:53 10° NNW 21:14:11 43° W 21:15:39 27° SSW
Meteor 1-20 Rocket 4.2 21:09:28 10° S 21:15:17 88° E 21:21:10 10° N
SL-27 R/B 4.4 21:20:03 17° NE 21:20:03 17° NE 21:21:03 10° NNE
Cosmos 405 Rocket 2.4 21:17:26 62° SSE 21:17:58 78° E 21:21:42 10° NNE
SPOT 5 3.9 21:19:54 25° ENE 21:19:55 25° ENE 21:23:31 10° NNE
BREEZE-M DEB (TANK) 4.0 21:20:22 10° W 21:22:19 14° WSW 21:22:56 13° SW
Cosmos 1697 Rocket 4.2 21:18:05 10° NW 21:22:53 30° WSW 21:27:27 11° SSW
NOSS 3-2 (A) 4.2 21:18:17 10° SW 21:23:46 52° NW 21:30:01 10° NNE
Cosmos 1437 Rocket 3.6 21:22:24 10° N 21:25:21 35° NE 21:25:21 35° NE
Cosmos 1862 Rocket 4.0 21:21:54 10° NNW 21:26:17 60° W 21:28:06 32° SSW
SPOT 1/Viking Rocket 3.6 21:25:42 45° SE 21:27:02 61° ENE 21:32:12 10° N
USA 267 3.2 21:20:45 10° NE 21:27:19 90° NW 21:33:52 10° SW
Resurs 01 Rocket 2.5 21:25:21 24° SSW 21:27:41 46° W 21:31:57 10° NNW
Landsat 7 3.7 21:27:38 51° SSE 21:28:48 78° ENE 21:33:34 10° N
USA 32 4.3 21:28:11 19° SSW 21:31:57 66° W 21:37:10 10° N
Cosmos 1153 Rocket 4.4 21:29:36 35° SSE 21:32:17 70° E 21:38:26 10° NNE
Cosmos 1515 4.4 21:29:00 10° N 21:32:00 41° NE 21:32:00 41° NE
NOSS 3-2 (C) 3.5 21:27:23 10° SW 21:32:59 72° NW 21:39:22 10° NNE
Cosmos 1850 Rocket 3.9 21:30:30 21° SSW 21:34:06 89° ESE 21:39:25 10° NNE
ERS-1 Rocket 3.2 21:36:12 47° E 21:36:42 49° ENE 21:41:31 10° N
Cosmos 1447 Rocket 4.4 21:30:52 10° N 21:37:13 78° E 21:39:25 43° SSE
Cosmos 2333 Rocket 4.5 21:35:47 10° NNE 21:37:45 12° NE 21:39:43 10° ENE
GP-B 3.8 21:36:14 10° N 21:40:34 52° W 21:42:21 31° SW
Okean 1 3.2 21:37:48 10° N 21:41:48 86° NW 21:41:48 86° NW
CARTOSAT-1 3.9 21:44:02 53° NE 21:44:02 53° NE 21:47:56 10° N
Cosmos 1802 Rocket 4.4 21:45:24 41° E 21:45:45 42° E 21:51:39 10° NNE
Cosmos 841 Rocket 4.0 21:42:23 10° N 21:47:21 42° ENE 21:47:34 42° ENE
Cosmos 1933 Rocket 4.3 21:47:19 33° SW 21:48:57 51° W 21:53:18 10° N
Meteor 1-19 Rocket 4.0 21:44:13 10° N 21:49:40 90° ENE 21:50:44 60° S
IGS 5A 3.9 21:52:15 51° WSW 21:52:31 52° W 21:56:34 10° NNW
Cosmos 468 Rocket 4.0 21:49:35 10° NNW 21:54:53 75° WSW 21:55:38 63° SSW
Cosmos 1869 Rocket 4.0 22:01:00 57° NNE 22:01:00 57° NNE 22:04:37 10° N
USA 234 3.9 21:58:07 33° E 22:00:39 48° NNE 22:06:52 10° NW
ATLAS 3B R/B 2.5 22:01:44 56° S 22:02:55 67° ESE 22:09:29 10° NE
Iridium 4 Rocket 4.3 22:05:13 32° NNE 22:05:13 32° NNE 22:07:41 10° NNE
Meteor 2-4 Rocket 3.5 22:00:40 10° N 22:06:16 75° E 22:06:23 75° E
Spot 2 Rocket 4.2 22:05:46 40° SW 22:06:50 46° W 22:11:44 10° NNW
Cosmos 1814 Rocket 4.3 22:06:03 10° N 22:10:48 54° NE 22:10:48 54° NE
Okean 1-7 3.6 22:09:12 10° NNW 22:12:51 53° WNW 22:12:51 53° WNW
Cosmos 1703 Rocket 4.3 22:10:38 10° NNW 22:14:26 48° WNW 22:14:26 48° WNW
Meteor 1-13 Rocket 4.5 22:09:48 10° N 22:14:44 52° ENE 22:14:44 52° ENE
SL-16 R/B 2.1 22:10:11 10° NNW 22:15:52 76° WSW 22:16:06 74° SW
Cosmos 2219 Rocket 4.0 22:12:13 10° N 22:16:15 19° NE 22:16:46 19° ENE
Terra 2.1 22:19:00 61° N 22:19:00 61° N 22:22:59 10° N
Cosmos 1570 Rocket 4.1 22:18:09 10° NNW 22:23:07 77° NNW 22:23:07 77° NNW
X-37B 3.8 22:22:13 10° WNW 22:22:40 13° WNW 22:22:40 13° WNW
Lacrosse 5 2.4 22:20:37 10° NW 22:24:47 53° W 22:24:47 53° W
Tsikada Rocket 4.5 22:22:35 10° N 22:28:15 46° ENE 22:28:15 46° ENE
Cosmos 2100 Rocket 4.2 22:30:09 54° SW 22:31:16 64° W 22:37:23 10° N
Cosmos 1763 Rocket 4.5 22:27:28 10° NW 22:32:22 38° WSW 22:32:28 38° WSW
Cosmos 2208 Rocket 4.2 22:27:07 10° NNW 22:31:36 66° NNW 22:31:36 66° NNW
CENTAUR R/B 4.0 22:28:12 10° WSW 22:33:38 34° NW 22:39:58 10° NNE
Cosmos 2322 Rocket 2.4 22:28:54 10° NNW 22:34:18 64° W 22:34:18 64° W
Cosmos 2173 Rocket 4.3 22:37:34 54° WSW 22:38:32 60° W 22:44:35 10° N
Cosmos 2237 4.4 22:36:56 10° NNW 22:41:59 70° NNW 22:41:59 70° NNW
Cosmos 2360 Rocket 2.4 22:39:30 10° NNW 22:44:24 66° N 22:44:24 66° N
Cosmos 44 4.3 22:41:19 10° NW 22:45:00 45° WNW 22:45:00 45° WNW
Cosmos 1725 Rocket 4.0 22:49:23 80° N 22:49:23 80° N 22:55:22 10° N
SL-08 R/B 4.5 22:53:56 74° NNW 22:53:56 74° NNW 22:59:33 10° N
Cosmos 2016 Rocket 4.2 22:57:59 64° W 22:58:10 64° W 23:04:31 10° N
Lacrosse 4 Rocket 3.8 23:06:11 19° N 23:06:11 19° N 23:07:32 10° NNE
COSMOS 2428 3.8 22:59:20 10° N 23:03:51 37° NE 23:03:51 37° NE
Cosmos 2237 Rocket 4.1 23:10:15 10° N 23:14:14 19° NE 23:14:16 19° NE
BREEZE-M DEB (TANK) 4.5 23:05:21 10° WNW 23:18:00 57° N 23:18:41 54° NNE
Cosmos 2333 Rocket 3.0 23:17:25 10° NNW 23:21:43 49° N 23:21:43 49° N
Cosmos 2233 Rocket 4.4 23:30:33 61° NW 23:30:33 61° NW 23:36:00 10° N
USA 234 4.0 23:45:28 41° W 23:45:28 41° W 23:49:58 10° NW
Cosmos 2227 Rocket 4.3 23:51:25 18° NE 23:51:25 18° NE 23:53:05 10° NE
ATLAS 3B R/B 4.3 23:48:50 11° W 23:54:07 27° NW 23:59:42 10° NNE
